Regional Weather Roundup
Issued by NWS

Home | Current Version | Previous Version | Graphics & Text | Print | Product List | Glossary On
Versions: 1 2 3 4 5 6 7 8 9 10 11 12 13 14 15 16 17 18 19 20 21 22 23 24 25 26 27 28 29 30 31 32 33 34 35 36 37 38 39 40 41 42 43 44 45 46 47 48 49 50
000
ASUS45 KSLC 051310
RWRUT

UTAH REGIONAL WEATHER ROUNDUP
NATIONAL WEATHER SERVICE SALT LAKE CITY UT
700 AM MDT TUE MAY 05 2015

UTZ001>011-023>025-051400-

NORTHERN UTAH

CITY           SKY/WX    TMP DP  RH WIND       PRES   REMARKS
BRIGHAM CITY   CLEAR     49  44  82 N5        29.86S
HILL AFB       MOCLDY    52  42  70 E14       29.86S
LOGAN          CLEAR     44  40  85 E5        29.87R
OGDEN          MOCLDY    53  42  66 S13       29.84S
PROVO AIRPORT  CLOUDY    52  45  76 SE3       29.88R
SALT LAKE CITY CLOUDY    58  44  60 SE7       29.84S
VERNAL         CLOUDY    51  41  68 CALM      29.90R
WENDOVER       CLOUDY    54  39  58 NE5       29.84S
HEBER CITY     CLOUDY    46  41  81 CALM      29.91S
WEST JORDAN    CLOUDY    55  48  76 CALM      29.86S

$$

UTZ012>022-026-027-051400-

SOUTHERN/CENTRAL UTAH

CITY           SKY/WX    TMP DP  RH WIND       PRES   REMARKS
BLANDING       CLOUDY    47  45  90 S3        30.00S
BRYCE CANYON   CLOUDY    41  39  93 CALM      29.98S
CEDAR CITY     LGT RAIN  48  46  93 S6        29.93S
DELTA          CLOUDY    52  47  85 S8        29.88S
HANKSVILLE     CLOUDY    54  52  94 E8        29.90R
MILFORD        LGT RAIN  50  48  93 S10       29.90S
MOAB/CYNLANDS  CLOUDY    55  51  86 SW9       29.85S
PRICE          CLOUDY    51  44  77 N3        29.89F
ST GEORGE      CLOUDY    59  48  67 SW6       29.90R
KANAB          MOCLDY    46  46 100 CALM      29.96S

$$

REGIONAL REPORTS     COLORADO/ARIZONA

CITY           SKY/WX    TMP DP  RH WIND       PRES   REMARKS
CRAIG, CO      CLEAR     36  33  89 CALM      29.95S
GRAND JUNCTION CLOUDY    54  44  69 E7        29.86F
RIFLE          CLOUDY    46  41  82 CALM      29.91F
MONTROSE       CLOUDY    50  45  83 CALM      29.92F
CORTEZ         LGT RAIN  48  46  93 CALM      29.93S FOG
PAGE, AZ       CLOUDY    56  50  80 CALM      29.88S
GRAND CANYON   CLOUDY    44  42  93 SW6       29.99R
KINGMAN        CLOUDY    55  51  86 SE5       29.92R
FLAGSTAFF      CLOUDY    43  41  93 SW6       30.00R

$$

REGIONAL REPORTS    NEVADA/IDAHO/WYOMING

CITY           SKY/WX    TMP DP  RH WIND       PRES   REMARKS
LAS VEGAS, NV  MOCLDY    65  38  36 S10       29.79R
ELY            MOCLDY    37  32  82 S7        29.94S WCI  32
ELKO           PTCLDY    43  35  73 E5        29.90S
POCATELLO, ID  PTCLDY    50  39  66 CALM      29.85F
BURLEY         PTCLDY    45  40  82 CALM      29.81S
EVANSTON, WY   CLOUDY    42  35  76 N3        29.96S
ROCK SPRINGS   PTCLDY    41  36  82 CALM      29.97R
KEMMERER       CLEAR     37  36  93 NW6       29.98R WCI  33

$$



USA.gov is the U.S. government's official web portal to all federal, state and local government web resources and services.